www.pogodaiklimat.ru

Погода и климат >> Архив погоды >> Мали >> Bamako


ПОГОДА в Bamako

  • Прогноз погоды в Bamako
  • Монитор погоды в Bamako
  • Климат города

АРХИВ ПОГОДЫ в Bamako

Время (UTC), дата Ветер
(напр.,м/с)
 
Видим.   Явления Облачность Т
(С)
Тd
(С)
f
(%)
Тe
(С)
Тes
(С)
Комфортность P
(гПа)
Po
(гПа)
Тmin
(С)
Tmax
(С)
R
(мм)
R24
(мм)
S
(см)
06 19.05 Ю 3 10 км 8/0
[Ac As Ci sp]
+26.3 +21.5 75 +34 +34 очень
душно
1008.3 968.4 +26.2
09 19.05 ЮЗ 4 10 км 6/0
[Ac lent Ci sp]
+29.6 +22.1 64 +38 +43 очень
душно
1010.8 970.7
12 19.05 ЮЗ 3 10 км 6/4 900 м
[Sc Ac lent Ci sp]
+33.6 +20.3 46 +40 +49 очень
душно
1009.9 970.0
15 19.05 Ю 4 10 км 5/3 900 м
[Sc Ac lent Ci sp]
+36.9 +16.9 31 +40 +45 очень
душно
1007.1 967.3
18 19.05 штиль 0 10 км 6/4 900 м
[Sc Ac lent Ci sp]
+34.2 +20.2 44 +41 +41 опасность
перегрева
1006.6 966.5 +37.3
21 19.05 С 2 10 км гроза без осадков {дождь} 9/3 900 м
[Cb cap Ac As]
+28.5 +24.3 78 +40 +40 очень
душно
1010.3 969.9
00 20.05 З 3 10 км зарница {гроза, дождь} 9/1 900 м
[Cb cap Ac As]
+26.3 +22.3 79 +34 +34 очень
душно
1011.1 970.8 0.8
03 20.05 ЮЗ 3 10 км зарница 8/1 900 м
[Cb cap Ac lent Ci sp]
+25.4 +22.8 86 +34 +34 очень
душно
1009.8 969.7
06 20.05 С 2 10 км 6/1 900 м
[Sc Ac lent Ci sp]
+25.4 +22.2 82 +33 +33 очень
душно
1009.9 969.9 +24.8 0.8
09 20.05 ЮЗ 2 10 км 4/0
[Ac lent Ci sp]
+30.0 +21.8 62 +39 +46 очень
душно
1012.1 971.7
12 20.05 Ю 3 10 км 6/3 900 м
[Sc Ac lent Ci sp]
+35.3 +21.2 44 +43 +52 опасность
перегрева
1011.2 971.0
15 20.05 Ю 3 10 км 8/3 900 м
[Cb cap Ci sp]
+38.3 +20.6 36 +44 +52 опасность
перегрева
1007.9 967.9
18 20.05 С 2 10 км гроза без осадков {дождь} 9/3 900 м
[Cb cap Ac As Ci sp]
+29.4 +22.4 66 +38 +39 очень
душно
1009.1 968.6 +38.5 0.3
21 20.05 З 2 10 км {гроза} 8/3 900 м
[Sc Ac As Ci sp]
+29.5 +23.1 69 +40 +40 очень
душно
1010.3 970.1
00 21.05 штиль 0 10 км {гроза} 8/0
[Ac lent Ci sp]
+28.5 +22.8 71 +38 +38 очень
душно
1010.9 970.9
03 21.05 штиль 0 10 км гроза без осадков 9/3 900 м
[Cb cap Ac lent Ci sp]
+26.8 +22.8 79 +36 +36 очень
душно
1009.8 969.9
06 21.05 ЮЗ 3 10 км гроза без осадков {дождь} 9/3 900 м
[Cb cap Ac As Ci sp]
+23.5 +20.5 83 +29 +29 душно 1011.6 970.8 +22.5 0.6
09 21.05 ЮЗ 3 10 км {гроза} 9/3 900 м
[Sc Ac lent Ci sp]
+26.4 +21.0 72 +33 +36 очень
душно
1013.4 972.8
12 21.05 ЮЗ 4 10 км {гроза} 8/3 900 м
[Sc Ci sp]
+31.5 +20.5 52 +38 +47 очень
душно
1012.7 972.3
15 21.05 Ю 4 10 км 9/1 900 м
[Sc Ci sp]
+33.5 +22.0 51 +42 +49 опасность
перегрева
1009.5 969.5
18 21.05 Ю 4 10 км 8/0
[Ci sp]
+31.6 +22.3 58 +41 +41 опасность
перегрева
1008.8 968.5 +34.1
21 21.05 СЗ 3 10 км 8/0
[Ac lent Ci sp]
+29.2 +23.3 71 +40 +40 очень
душно
1009.8 969.3
00 22.05 З 4 10 км 6/0
[Ci sp]
+27.4 +23.1 77 +37 +37 очень
душно
1011.1 970.8
03 22.05 ЮЗ 4 10 км 6/0
[Ac lent Ci sp]
+26.2 +22.6 81 +35 +35 очень
душно
1008.8 968.6
06 22.05 ЮЗ 3 10 км 6/0 900 м
[Ac lent Ci sp]
+25.2 +24.2 94 +35 +35 очень
душно
1009.5 969.0 +25.2
09 22.05 Ю 3 10 км 3/0
[Ci sp]
+29.5 +23.0 68 +39 +46 очень
душно
1010.4 970.1
12 22.05 ЮЗ 3 10 км 3/3 900 м
[Sc Ci sp]
+35.6 +21.1 43 +43 +55 опасность
перегрева
1009.2 969.2
15 22.05 Ю 4 10 км гроза без осадков 8/3 900 м
[Cb cap Ac lent Ci sp]
+38.2 +21.2 38 +45 +50 опасность
перегрева
1005.9 966.1
18 22.05 ЮЗ 4 10 км в посл. час гроза 9/1 900 м
[Sc Ac As]
+30.0 +19.9 55 +36 +37 очень
душно
1006.8 966.4 +38.5
21 22.05 ЮЗ 5 10 км гроза без осадков 9/3 900 м
[Cb cap Ac As Ci sp]
+29.0 +21.7 65 +37 +37 очень
душно
1008.7 968.6
00 23.05 В 8 10 км гроза без осадков {дождь} 10/1 900 м
[Cb cap Ac As]
+23.6 +21.6 89 +30 +30 очень
душно
1011.8 971.4 1
03 23.05 Ю 3 10 км 8/1 900 м
[Sc Ac As Ci sp]
+24.0 +20.4 80 +30 +30 очень
душно
1006.7 967.0
06 23.05 В 4 10 км {гроза} 10/1 900 м
[Sc Ac As]
+25.3 +21.3 79 +32 +32 очень
душно
1007.5 967.3 +23.0 1
09 23.05 Ю 4 10 км 9/1 900 м
[Sc Ac As]
+27.5 +21.7 71 +35 +37 очень
душно
1009.5 969.1
12 23.05 штиль 0 10 км 9/3 900 м
[Sc Ac lent Ci sp]
+32.0 +22.0 56 +41 +52 опасность
перегрева
1010.1 969.6
18 23.05 С 4 10 км 6/1 900 м
[Sc Ac lent Ci sp]
+36.0 +18.4 36 +40 +41 очень
душно
1007.6 967.5 +37.5
21 23.05 штиль 0 10 км 6/0
[Ci sp]
+31.0 +22.4 60 +40 +40 очень
душно
1008.9 968.6
00 24.05 ЮЗ 4 10 км 4/0
[Ci sp]
+28.5 +23.6 75 +39 +39 очень
душно
1009.6 969.4
03 24.05 З 5 10 км 4/0
[Ci sp]
+27.5 +23.1 77 +37 +37 очень
душно
1007.7 967.7
06 24.05 Ю 4 10 км 6/0
[Ac lent Ci sp]
+27.5 +22.8 76 +37 +37 очень
душно
1007.6 967.9 +27.0
09 24.05 Ю 3 10 км {дождь} 6/3 900 м
[Sc Ac lent Ci sp]
+31.0 +22.4 60 +40 +44 очень
душно
1009.3 969.3
12 24.05 ЮЗ 6 10 км гроза без осадков {дождь} 9/4 900 м
[Cb cap Ac lent Ci sp]
+32.0 +23.3 60 +43 +45 опасность
перегрева
1011.5 971.2 0.0
15 24.05 ЮВ 2 10 км гроза, ливневой дождь 9/4 900 м
[Cb cap Ac As Ci sp]
+24.8 +22.2 85 +32 +37 очень
душно
1012.2 971.4
18 24.05 ЮЗ 5 10 км {гроза, дождь} 9/3 900 м
[Sc Ac As Ci sp]
+23.5 +21.0 86 +30 +30 очень
душно
1011.0 970.1 +33.8 4
21 24.05 ЮЗ 3 10 км 9/3 900 м
[Sc Ac As Ci sp]
+22.9 +20.5 86 +30 +30 очень
душно
1010.4 969.8
00 25.05 ЮЗ 3 10 км 6/1 900 м
[Sc Ac As Ci sp]
+22.6 +20.7 89 +29 +29 очень
душно
1010.1 969.5
03 25.05 ЮЗ 3 10 км 5/1 900 м
[Sc Ac As Ci sp]
+22.5 +20.7 90 +29 +29 очень
душно
1009.9 968.8
06 25.05 ЮЗ 3 10 км 9/1 900 м
[Sc Ac lent Ci sp]
+22.5 +20.4 88 +29 +29 очень
душно
1010.1 968.9 +22.5
09 25.05 ЮЗ 5 10 км 9/0
[Ac lent Ci sp]
+26.0 +21.2 75 +33 +35 очень
душно
1012.3 971.2
12 25.05 Ю 6 10 км 8/0
[Ac lent Ci sp]
+31.7 +19.9 50 +38 +44 очень
душно
1011.7 971.0
15 25.05 ЮЗ 4 10 км 6/1 900 м
[Sc Ci sp]
+34.9 +19.8 41 +41 +48 опасность
перегрева
1008.6 968.3
18 25.05 ЮЗ 4 10 км 4/0
[Ci sp]
+33.5 +20.2 46 +40 +41 очень
душно
1008.5 968.1 +35.2
21 25.05 ЮЗ 3 10 км 3/0
[Ci sp]
+30.5 +21.7 59 +39 +39 очень
душно
1010.0 969.6
00 26.05 ЮЗ 2 10 км 3/0
[Ci sp]
+27.3 +22.6 76 +36 +36 очень
душно
1011.6 971.2
03 26.05 ЮЗ 5 10 км 3/0
[Ci sp]
+25.8 +23.3 86 +35 +35 очень
душно
1010.5 970.3

 

Местоположение метеостанции Bamako (Мали): широта 12.53 долгота -7.95 высота над уровнем моря 381 м.

В архиве по умолчанию представлена погода в Bamako за последнюю неделю. Архивные данные за месяц целиком и за предыдущие месяцы, начиная с января 2011 года, Вы можете получить, выбрав интересующий диапазон дат из раскрывающегося списка и нажав кнопку "Ввод!".

Внимание! Время в таблицах - всемирное. Для получения местного времени необходимо прибавить поправку, которая в Bamako равна 0 ч.

Смотрите также архив погоды в соседних городах и на ближайших метеорологических станциях:

Погода в Bougouni (Мали) (133 км)
Погода в Kita (Мали) (175 км)
Погода в Segou (Мали) (218 км)
Погода в Koutiala (Мали) (270 км)
Погода в Sikasso (Мали) (280 км)
Погода в Nara (Мали) (302 км)
Погода в Odienne (Кот-д'Ивуар) (335 км)
Погода в Nioro Du Sahel (Мали) (336 км)
Погода в San (Мали) (350 км)
Погода в Kenieba (Мали) (358 км)

Пояснения к столбцам:

Ветер - указаны скорость ветра в м/с - средняя за 10 мин, порывы в срок и между сроками (в фигурных скобках) и направление, откуда дует ветер: С - северный, СВ - северо-восточный, В - восточный, ЮВ - юго-восточный, Ю - южный, ЮЗ - юго-западный, З - западный, СЗ - северо-западный.
Видимость - горизонтальная дальность видимости в метрах или километрах. При видимости от 1 до 10 км при отсутствии осадков обычно наблюдается дымка, при ухудшении видимости до 1 км и менее - туман. В сухую погоду видимость может ухудшаться дымом, пылью или мглою.
Явления - указаны атмосферные явления, наблюдавшиеся в срок или в последний час перед сроком; фигурными скобками обозначены явления, наблюдавшиеся между сроками (за 1-3 часа до срока); квадратными скобками обозначены град или гололедные отложения с указанием их диаметра в мм.
Облачность - указаны через наклонную черту общая и нижняя облачность в баллах и высота нижней границы облаков в метрах; квадратными скобками обозначены формы облаков: Ci - перистые, Cs - перисто-слоистые, Cc - перисто-кучевые, Ac - высококучевые, As - высокослоистые, Sc - слоисто-кучевые, Ns - слоисто-дождевые, Cu - кучевые, Cb - кучево-дождевые. Подробнее классификацию облаков см. в Атласе облаков (PDF).
T - Температура воздуха - температура, измеренная на высоте 2 м над землей.
Td - Температура точки росы - температура, при понижении до которой содержащийся в воздухе водяной пар достигнет насыщения.
f - Относительная влажность воздуха - влажноcть воздуха, измеренная на высоте 2 м над землей.
Te - Эффективная температура - температура, которую ощущает одетый по сезону человек в тени. Характеристика душности погоды. При расчете учитывается влияние влажности воздуха и скорости ветра на теплоощущения человека.
Tes - Эффективная температура на солнце - температура, которую ощущает человек, с поправкой на солнечный нагрев. Характеристика знойности погоды. Зависит от высоты солнца над горизонтом, облачности и скорости ветра. Ночью, в пасмурную погоду, а также при ветре 12 м/с и более поправка равна нулю.
P - Атмосферное давление - приведенное к уровню моря атмосферное давление.
Po - Атмосферное давление - измеренное на уровне метеостанции атмосферное давление.
Tmin - Минимальная температура - минимум температуры воздуха на высоте 2 м над землей.
Tmax - Максимальная температура - максимум температуры воздуха на высоте 2 м над землей.
R - Количество осадков - Количество выпавших осадков за период времени, мм. При наведении курсора мыши на число - период времени, за который выпало указанное количество осадков.
R24 - Количество осадков - Количество выпавших осадков за 24 часа, мм.
S - Снежный покров - Высота снежного покрова, см. При наведении курсора мыши на число - состояние снежного покрова и степень покрытия местности в баллах.